Regional Weather Roundup
Issued by NWS Little Rock, AR

Home | Current Version | Previous Version | Text Only | Print | Product List | Glossary Off
Versions: 1 2 3 4 5 6 7 8 9 10 11 12 13 14 15 16 17 18 19 20 21 22 23 24 25 26 27 28 29 30 31 32

000
ASUS44 KLZK 041805
RWRLZK

WEATHER ROUNDUP FOR ARKANSAS
NATIONAL WEATHER SERVICE LITTLE ROCK AR
1200 PM CST SUN DEC 04 2016

NOTE: "FAIR" INDICATES FEW OR NO CLOUDS BELOW 12,000 FEET WITH NO
SIGNIFICANT WEATHER AND/OR OBSTRUCTIONS TO VISIBILITY.

ARZ001-003-010-029-041900-
NORTHWEST ARKANSAS

CITY           SKY/WX    TMP DP  RH WIND       PRES   REMARKS
FAYETTEVILLE   CLOUDY    44  42  93 NW5       30.02F
6HR MIN TEMP:  41; 6HR MAX TEMP:  45; 6HR PCP:  0.02;

FORT SMITH     CLOUDY    46  42  86 W3        30.05F
6HR MIN TEMP:  43; 6HR MAX TEMP:  46; 6HR PCP:  0.03;

HARRISON       CLOUDY    43  42  97 W8        30.00F
6HR MIN TEMP:  38; 6HR MAX TEMP:  43; 6HR PCP:  0.01;

BENTONVILLE    CLOUDY    45  37  76 NW8       30.02F
6HR MIN TEMP:  41; 6HR MAX TEMP:  45; 6HR PCP:  0.08;

ROGERS         CLOUDY    44  41  89 NW9       30.01F
6HR MIN TEMP:  40; 6HR MAX TEMP:  45; 6HR PCP:  0.08;

SILOAM SPGS    CLOUDY    46  39  76 NW7       30.01F
6HR MIN TEMP:  43; 6HR MAX TEMP:  46; 6HR PCP:  0.11;

HIGHFILL       CLOUDY    46  42  86 NW6       30.01F
6HR MIN TEMP:  41; 6HR MAX TEMP:  46; 6HR PCP:  0.08;

SPRINGDALE     CLOUDY    45  43  93 NW8       30.03S
$$

ARZ004-005-016-041900-
NORTH CENTRAL ARKANSAS

CITY           SKY/WX    TMP DP  RH WIND       PRES   REMARKS
BATESVILLE     CLOUDY    43  39  87 W3        30.01F
6HR MIN TEMP:  39; 6HR MAX TEMP:  43;

FLIPPIN        CLOUDY    43  37  81 S3        29.98F
6HR MIN TEMP:  39; 6HR MAX TEMP:  43; 6HR PCP:  0.02;

MTN HOME       CLOUDY    41  40  96 W5        29.99F
6HR MIN TEMP:  38; 6HR MAX TEMP:  41; 6HR PCP:  0.01;

$$

ARZ040-041-041900-
WEST CENTRAL ARKANSAS

CITY           SKY/WX    TMP DP  RH WIND       PRES   REMARKS
MENA           CLOUDY    50  48  93 N3        30.02F
MOUNT IDA      CLOUDY    48  43  82 NW5       29.99F
6HR MIN TEMP:  43; 6HR MAX TEMP:  48;

$$

ARZ009-017-025-026-028-041900-
NORTHEAST ARKANSAS

CITY           SKY/WX    TMP DP  RH WIND       PRES   REMARKS
CORNING        CLOUDY    41  41 100 NW6       30.01F FOG
JONESBORO      CLOUDY    43  42  97 NW3       30.00F
6HR MIN TEMP:  41; 6HR MAX TEMP:  43;

NEWPORT        CLOUDY    43  42  97 MISG      30.02F FOG
6HR MIN TEMP:  41; 6HR MAX TEMP:  43;

WALNUT RIDGE   CLOUDY    43  37  81 NW6       30.00F
6HR MIN TEMP:  39; 6HR MAX TEMP:  43;

BLYTHEVILLE    CLOUDY    47  44  90 N5        29.99F
6HR MIN TEMP:  42; 6HR MAX TEMP:  47;

$$

ARZ022-023-033-042-044-041900-
CENTRAL ARKANSAS

CITY           SKY/WX    TMP DP  RH WIND       PRES   REMARKS
LITTLE ROCK    CLOUDY    44  44 100 NW8       30.03F
6HR MIN TEMP:  42; 6HR MAX TEMP:  44; 6HR PCP:  0.01;

N LITTLE ROCK    N/A     42  41  96 N5        30.04F
6HR MIN TEMP:  41; 6HR MAX TEMP:  43;

JACKSONVILLE   CLOUDY    45  44  99 NW5       30.02F
6HR MIN TEMP:  42; 6HR MAX TEMP:  45;

SEARCY         CLOUDY    44  43  96 VRB5      30.03F
6HR MIN TEMP:  42; 6HR MAX TEMP:  44; 6HR PCP: TRACE;

HOT SPRINGS    CLOUDY    47  44  90 VRB3      30.02F
6HR MIN TEMP:  43; 6HR MAX TEMP:  47;

RUSSELLVILLE   CLOUDY    46  42  86 W9        30.02F
6HR MIN TEMP:  42; 6HR MAX TEMP:  46;

CLINTON        CLOUDY    45  43  93 CALM      30.01F
$$

ARZ036-041900-
EAST ARKANSAS

CITY           SKY/WX    TMP DP  RH WIND       PRES   REMARKS
WEST MEMPHIS   CLOUDY    45  44  97 N6        29.97F FOG
6HR MIN TEMP:  42; 6HR MAX TEMP:  45;

$$

ARZ050-053-066-070-073-041900-
SOUTHWEST ARKANSAS

CITY           SKY/WX    TMP DP  RH WIND       PRES   REMARKS
ARKADELPHIA    CLOUDY    48  44  86 N5        30.04F
6HR MIN TEMP:  45; 6HR MAX TEMP:  48;

CAMDEN         CLOUDY    48  45  87 N5        30.03F
TEXARKANA      CLOUDY    48  45  89 N5        30.04S
6HR MIN TEMP:  46; 6HR MAX TEMP:  48; 6HR PCP: TRACE;

EL DORADO      CLOUDY    47  46  97 NW8       30.02F
6HR MIN TEMP:  46; 6HR MAX TEMP:  47;

DE QUEEN       CLOUDY    51  47  86 CALM      30.03F
6HR MIN TEMP:  46; 6HR MAX TEMP:  51;

$$

ARZ056-057-069-041900-
SOUTHEAST ARKANSAS

CITY           SKY/WX    TMP DP  RH WIND       PRES   REMARKS
PINE BLUFF     CLOUDY    45  44  97 N9        30.03S
6HR MIN TEMP:  45; 6HR MAX TEMP:  46;

STUTTGART      CLOUDY    45  39  81 NW12      30.02S
6HR MIN TEMP:  45; 6HR MAX TEMP:  45; 6HR PCP:  0.01;

MONTICELLO     CLOUDY    48  45  89 NW7       30.01R
6HR MIN TEMP:  45; 6HR MAX TEMP:  48;


$$






USA.gov is the U.S. government's official web portal to all federal, state and local government web resources and services.